Location: Gönnheim
(49.4488°N, 8.2383°E)
Time: 16:35:35
(UTC+00:00)

SL-8 Rocket - Pass Details

Date: 19 May 2025
Orbit: 955 x 990 km, 82.9° (Epoch: 17 June)

Event Time Altitude Azimuth Distance (km) Brightness Sun altitude
Rises 21:16:06 0° 347° (NNW) 3,655 8.5 -15.0°
Reaches altitude 10° 21:18:39 10° 344° (NNW) 2,702 7.6 -15.2°
Maximum altitude 21:24:41 59° 267° (W) 1,100 4.4 -15.7°
Enters shadow 21:29:42 15° 192° (SSW) 2,329 5.5 -16.1°
